Location: Unspecified
(0.0000°N, 0.0000°E)
Time: 08:42:37
(UTC+00:00)

Explorer 11/Cluster Stage 4 - All Passes

Search period start: 19 January 2017 00:00
Search period end: 29 January 2017 00:00
Orbit: 467 x 1264 km, 28.8° (Epoch: 18 January)

Date Brightness Start Highest point End Pass type
(mag) Time Alt. Az. Time Alt. Az. Time Alt. Az.
19 Jan - 03:05:04 10° NNW 03:09:33 23° NNE 03:13:22 10° ENE visible
19 Jan - 04:53:24 10° WNW 04:58:24 75° SSW 05:02:28 10° SE visible
19 Jan - 06:46:05 10° SW 06:46:37 10° SSW 06:47:08 10° SSW daylight
19 Jan - 14:04:14 10° S 14:07:03 14° SSE 14:10:08 10° ESE daylight
19 Jan - 15:49:51 10° SW 15:55:52 58° SSE 16:03:14 10° ENE daylight
19 Jan - 17:38:37 10° W 17:45:12 43° NNW 17:52:47 10° NE daylight
19 Jan - 19:30:52 10° WNW 19:35:27 16° NNW 19:40:11 10° NNE visible
20 Jan - 02:54:34 10° NNW 02:59:48 29° NNE 03:04:08 10° E visible
20 Jan - 04:43:27 10° WNW 04:48:35 57° SSW 04:52:44 10° SE visible
20 Jan - 13:53:57 10° S 13:57:10 16° SSE 14:00:48 10° ESE daylight
20 Jan - 15:40:01 10° SW 15:45:52 70° SSE 15:53:10 10° ENE daylight
20 Jan - 17:29:03 10° W 17:35:15 36° NNW 17:42:24 10° NE daylight
20 Jan - 19:21:57 10° NW 19:25:37 14° NNW 19:29:25 10° N visible
21 Jan - 00:57:13 10° N 01:00:08 13° NNE 01:02:50 10° NE night (unlit)
21 Jan - 02:44:09 10° NW 02:50:01 37° NNE 02:54:46 10° E visible
21 Jan - 04:33:33 10° WNW 04:38:43 44° SSW 04:42:55 10° SE visible
21 Jan - 13:43:46 10° SSW 13:47:18 19° SSE 13:51:19 10° ESE daylight
21 Jan - 15:30:13 10° WSW 15:35:54 84° SSE 15:43:03 10° ENE daylight
21 Jan - 17:19:36 10° W 17:25:20 30° NNW 17:31:57 10° NNE daylight
21 Jan - 19:13:24 10° NW 19:15:51 12° NNW 19:18:21 10° N visible
22 Jan - 00:46:11 10° NNW 00:50:23 16° NNE 00:54:11 10° NE night (unlit)
22 Jan - 02:33:48 10° NW 02:40:11 47° NNE 02:45:17 10° ESE visible
22 Jan - 04:23:41 10° W 04:28:51 36° SSW 04:33:03 10° SE visible
22 Jan - 13:33:41 10° SSW 13:37:24 22° SSE 13:41:45 10° E daylight
22 Jan - 15:20:29 10° WSW 15:25:57 80° NNW 15:32:53 10° ENE daylight
22 Jan - 17:10:16 10° WNW 17:15:28 25° NNW 17:21:26 10° NNE daylight
23 Jan - 00:35:26 10° NNW 00:40:36 19° NNE 00:45:12 10° ENE night (unlit)
23 Jan - 02:23:30 10° NW 02:30:18 60° NNE 02:35:43 10° ESE visible
23 Jan - 04:13:54 10° W 04:18:57 30° SSW 04:23:08 10° SSE visible
23 Jan - 13:23:39 10° SSW 13:27:31 26° SSE 13:32:06 10° E daylight
23 Jan - 15:10:50 10° WSW 15:16:03 65° NNW 15:22:40 10° NE daylight
23 Jan - 17:01:05 10° WNW 17:05:39 20° NNW 17:10:49 10° NNE daylight
24 Jan - 00:24:49 10° NNW 00:30:46 24° NNE 00:36:02 10° ENE night (unlit)
24 Jan - 02:13:15 10° NW 02:20:24 74° NNE 02:26:05 10° ESE visible
24 Jan - 04:04:09 10° W 04:09:02 25° SSW 04:13:09 10° SSE visible
24 Jan - 13:13:42 10° SSW 13:17:38 31° SSE 13:22:22 10° E daylight
24 Jan - 15:01:15 10° WSW 15:06:11 51° NNW 15:12:24 10° NE daylight
24 Jan - 16:52:05 10° WNW 16:55:52 16° NNW 17:00:04 10° NNE daylight
24 Jan - 22:28:12 10° N 22:30:18 11° NNE 22:32:22 10° NNE night (unlit)
25 Jan - 00:14:17 10° NNW 00:20:53 29° NNE 00:26:42 10° E night (unlit)
25 Jan - 02:03:03 10° WNW 02:10:26 89° NNE 02:16:21 10° ESE visible
25 Jan - 03:54:30 10° W 03:59:08 21° SSW 04:03:06 10° SSE visible
25 Jan - 13:03:49 10° SW 13:07:47 38° SSE 13:12:34 10° E daylight
25 Jan - 14:51:45 10° W 14:56:22 39° NNW 15:02:04 10° NE daylight
25 Jan - 16:43:24 10° NW 16:46:08 13° NNW 16:49:04 10° N daylight
25 Jan - 22:17:01 10° N 22:20:31 13° NNE 22:23:56 10° NE night (unlit)
26 Jan - 00:03:49 10° NW 00:10:58 34° NNE 00:17:16 10° E night (unlit)
26 Jan - 01:52:54 10° WNW 02:00:27 77° SSW 02:06:34 10° SE night (unlit)
26 Jan - 03:44:55 10° WSW 03:49:14 19° SSW 03:52:59 10° SSE visible
26 Jan - 12:53:58 10° SW 12:57:56 49° SSE 13:02:44 10° ENE daylight
26 Jan - 14:42:22 10° W 14:46:35 30° NNW 14:51:42 10° NE daylight
26 Jan - 16:36:11 10° NNW 16:36:26 10° NNW 16:36:40 10° NNW daylight
26 Jan - 22:06:15 10° NNW 22:10:41 15° NNE 22:15:03 10° NE night (unlit)
26 Jan - 23:53:26 10° NW 00:01:00 41° NNE 00:07:43 10° E night (unlit)
27 Jan - 01:42:48 10° WNW 01:50:26 64° SSW 01:56:43 10° SE night (unlit)
27 Jan - 03:35:27 10° WSW 03:39:20 16° SSW 03:42:48 10° S visible
27 Jan - 12:44:11 10° SW 12:48:06 65° SSE 12:52:50 10° ENE daylight
27 Jan - 14:33:05 10° WNW 14:36:50 23° NNW 14:41:14 10° NNE daylight
27 Jan - 21:55:39 10° NNW 22:00:50 18° NNE 22:05:56 10° ENE night (unlit)
27 Jan - 23:43:06 10° NW 23:50:59 49° NNE 23:58:04 10° ESE night (unlit)
28 Jan - 01:32:46 10° WNW 01:40:24 54° SSW 01:46:48 10° SE night (unlit)
28 Jan - 03:26:06 10° WSW 03:29:26 14° SSW 03:32:29 10° S visible
28 Jan - 10:48:59 10° SSE 10:50:07 11° SSE 10:51:16 10° SE daylight
28 Jan - 12:34:28 10° WSW 12:38:18 87° SSE 12:42:53 10° ENE daylight
28 Jan - 14:24:00 10° WNW 14:27:07 18° NNW 14:30:40 10° NNE daylight
28 Jan - 21:45:08 10° NNW 21:50:55 21° NNE 21:56:40 10° ENE night (unlit)
28 Jan - 23:32:49 10° NW 23:40:56 58° NNE 23:48:20 10° ESE night (unlit)
